SCP
0 0 0 0 0 0 0 0 0 0 0 0 0 0 0 0 0 0 0 0 0 0 0 0 0 0 0 0 0 0 0 0 0 0 0 0 0 0 0 0 0 0 0 0
0 0 0 0 0 0 0 0 0 0 0 0 0 0 0 0 0 0 0 0 0 0 0 0 0 0 0 0 0 0 0 0 0 0 0 0 0 0 0 0 0 0 0 0
0 0 0 0 0 0 0 0 0 0 0 0 0 0 0 0 0 0 0 0 0 0 0 0 0 0 0 0 0 0 0 0 0 0 0 0 0 0 0 0 0 0 0 0
0 0 0 0 0 0 0 0 0 0 0 0 0 0 0 0 0 0 0 0 0 0 0 0 0 0 0 0 0 0 0 1 0 0 0 0 0 0 0 0 0 0 0 0
0 0 0 0 0 0 0 0 0 0 0 0 0 0 0 0 0 0 0 0 0 0 0 0 0 0 0 0 0 0 0 1 1 1 0 0 0 0 0 0 0 0 0 0
0 0 0 0 0 0 0 0 0 0 0 0 0 0 0 0 0 0 0 0 0 0 0 0 0 0 0 0 0 0 0 1 1 1 0 0 0 0 0 0 0 0 0 0
0 0 0 0 0 0 0 0 0 0 0 0 0 0 0 0 0 0 0 0 0 0 0 0 0 0 0 0 0 0 1 1 1 0 0 0 0 0 0 0 0 0 0 0
0 0 0 0 0 0 0 0 0 0 0 0 0 0 0 0 0 0 0 0 0 0 0 0 0 0 1 0 0 0 1 1 1 0 0 0 0 0 0 0 0 0 0 0
0 0 0 0 0 0 0 0 0 0 0 0 0 0 0 0 0 0 0 0 0 0 0 0 0 1 1 0 0 0 0 1 1 1 0 0 0 0 0 0 0 0 0 0
0 0 0 0 0 0 0 0 0 0 0 0 0 0 0 0 0 0 0 0 0 0 1 1 1 1 1 0 0 0 0 0 1 1 1 0 0 0 0 0 0 0 0 0
0 0 0 0 0 0 0 0 0 0 0 0 0 0 0 0 0 0 0 0 0 0 1 1 1 1 0 0 0 0 0 0 1 1 1 1 1 0 0 0 0 0 0 0
0 0 0 0 0 0 0 0 0 0 0 0 0 0 0 0 0 0 0 0 0 0 0 0 0 0 0 0 0 0 0 0 0 0 1 1 1 1 1 0 0 0 0 0
0 0 0 0 0 0 0 0 0 0 0 0 0 0 0 0 0 0 0 0 0 0 0 1 1 1 1 0 0 0 0 0 0 0 1 1 1 1 1 1 0 0 0 0
0 0 0 0 0 0 0 0 0 0 0 0 0 0 0 0 0 0 0 0 0 0 1 1 1 1 1 1 1 1 1 1 1 1 1 1 1 1 1 1 1 0 0 0
0 0 0 0 0 0 0 0 0 0 0 0 0 0 0 0 0 0 0 0 0 0 1 1 1 1 1 1 1 1 1 1 1 1 1 1 1 1 1 1 1 1 1 0
0 0 0 0 0 0 0 0 0 0 0 0 0 0 0 0 0 0 0 0 0 0 1 1 1 1 1 1 1 1 1 1 1 1 1 1 1 1 1 1 1 1 1 1
0 0 0 0 0 0 0 0 0 0 0 0 0 0 0 0 0 0 0 0 1 1 1 1 1 1 1 1 1 1 1 1 1 1 1 1 1 1 1 1 1 1 1 1
0 0 0 0 0 0 0 0 0 0 0 0 0 0 0 0 0 0 1 1 1 1 1 1 1 1 1 1 1 1 1 1 1 1 1 1 1 1 1 1 1 1 1 1
0 0 0 0 0 0 0 0 0 0 0 0 0 0 0 0 0 0 1 1 1 1 1 1 1 1 1 1 1 1 1 1 1 1 1 1 1 1 1 1 1 1 1 1
0 0 0 0 0 0 0 0 0 0 0 0 0 0 0 0 0 1 1 1 1 1 1 1 1 1 2 2 2 2 2 2 1 1 1 1 1 1 2 2 2 2 1 1
0 0 0 0 0 0 0 0 0 0 0 0 0 0 0 0 0 1 1 1 1 1 1 1 1 2 2 2 2 2 2 2 2 1 1 1 2 2 2 2 2 2 2 2
0 0 0 0 0 0 0 0 0 0 0 0 0 0 0 1 1 1 1 1 1 1 1 1 2 2 2 2 2 2 2 2 2 2 1 1 2 2 2 2 2 2 1 1
0 0 0 0 0 0 0 0 0 0 0 0 0 0 0 1 1 1 1 1 1 1 1 2 2 2 2 2 2 2 2 2 2 2 2 2 1 1 2 2 2 1 1 1
0 0 0 0 0 0 0 0 0 1 1 1 1 1 1 1 1 1 1 1 1 1 1 1 2 2 2 2 2 2 2 2 2 2 2 1 1 1 1 1 1 1 1 1
0 0 0 0 0 0 1 1 1 1 1 1 1 1 1 1 1 1 1 1 1 1 1 1 2 2 2 2 2 2 2 2 2 2 2 1 1 1 1 1 1 1 1 1
0 0 0 0 0 1 1 1 1 1 0 1 1 1 1 1 1 1 1 1 2 2 2 2 2 2 2 2 2 2 2 2 2 2 1 1 1 1 1 1 1 1 1 1
Wind_Speed
8 9 8 7 5 2 2 3 4 5 5 5 3 4 8 11 11 11 11 11 10 9 10 9 9 8 8 7 7 6 5 5 4 3 3 2 2 1 1 1 1 0 1 1
10 10 7 5 6 6 5 5 5 5 4 4 2 3 6 10 12 11 11 11 11 11 11 10 10 10 9 8 8 7 7 6 5 3 2 1 1 1 1 1 1 1 0 1
13 7 7 8 9 9 8 6 4 4 5 6 5 6 7 9 10 10 11 11 12 12 12 12 11 11 10 9 9 7 7 6 5 5 4 3 3 2 2 1 1 0 0 0
11 8 9 11 10 10 8 5 5 6 6 3 4 2 6 8 9 11 12 12 12 13 12 12 12 12 11 10 9 8 7 7 6 6 4 4 3 2 1 1 1 1 0 1
10 10 12 12 10 9 5 4 6 7 7 5 5 5 4 7 7 9 11 12 13 13 13 13 13 12 11 10 9 9 8 7 7 6 6 5 4 2 2 1 1 1 1 1
8 7 9 9 7 7 6 7 6 8 8 7 4 6 2 4 5 6 9 11 12 13 13 13 12 11 11 10 9 9 9 8 8 7 6 6 4 3 2 2 2 2 1 1
12 10 8 8 10 11 11 10 7 8 8 5 3 6 2 1 3 4 6 9 11 12 13 13 13 13 12 11 11 10 10 9 9 8 7 7 6 5 5 4 3 2 1 1
15 14 12 10 11 10 13 13 9 6 6 5 6 6 2 2 2 3 5 7 10 12 12 13 13 13 12 12 12 11 10 10 9 9 8 7 7 5 4 4 3 2 2 1
12 11 10 9 8 10 12 12 10 9 7 6 5 4 4 3 4 5 6 7 9 11 12 12 13 13 13 12 12 12 11 10 10 10 9 7 7 5 4 4 4 3 2 2
8 9 11 10 9 7 9 10 8 9 8 8 7 8 5 5 5 5 6 6 8 9 11 12 12 12 11 11 11 11 11 10 10 10 8 7 7 6 5 5 4 3 2 2
10 10 11 12 12 12 11 12 10 8 8 8 6 4 3 4 3 4 5 6 7 9 10 11 11 11 11 11 11 10 10 10 9 9 8 7 7 7 6 5 5 4 3 3
9 9 10 11 8 7 11 11 12 10 8 8 7 3 4 4 4 3 4 5 6 7 8 9 10 10 10 11 10 10 10 10 9 9 8 8 7 7 7 6 6 5 4 4
6 9 11 12 12 10 12 11 12 11 9 8 9 4 6 5 4 3 3 5 6 6 7 8 9 9 10 10 10 10 9 9 9 9 9 8 7 7 7 6 5 5 4 4
7 9 12 13 10 12 13 13 14 14 10 10 10 5 5 5 4 4 4 5 7 7 7 7 8 8 9 9 9 9 9 9 9 9 8 8 8 7 7 6 6 5 5 4
6 10 11 10 8 10 12 14 15 15 13 11 9 8 4 3 3 3 4 5 6 7 7 7 7 7 8 9 9 9 9 9 9 9 8 8 8 7 6 6 6 6 6 5
4 8 10 11 10 12 12 13 14 14 13 12 9 7 2 3 2 2 4 5 5 6 7 7 7 8 8 9 9 9 9 9 9 9 8 8 8 7 7 7 6 6 6 5
5 7 10 12 12 13 15 14 14 13 10 10 10 6 3 4 3 3 3 4 5 5 6 7 7 7 8 8 9 9 9 9 9 9 8 8 8 8 7 7 7 7 6 6
6 7 8 10 11 17 9 8 10 11 9 8 7 5 4 4 3 3 3 3 4 5 5 6 6 7 7 8 8 8 9 9 9 9 8 8 8 8 7 7 7 7 6 6
7 8 8 10 13 12 8 8 10 11 9 6 6 5 4 4 4 3 1 1 3 4 4 5 6 6 6 7 8 8 9 9 9 9 9 9 8 8 8 7 7 6 6 6
8 8 9 10 13 14 9 8 7 10 10 6 6 5 4 5 7 3 1 2 2 2 2 4 5 5 5 6 7 8 8 8 9 8 8 8 8 8 8 7 7 6 6 6
11 10 12 12 12 8 3 5 8 12 6 4 5 4 4 4 4 2 1 1 1 1 2 3 4 5 4 5 7 7 7 7 7 7 7 7 7 8 7 6 6 6 6 6
10 10 11 11 13 8 2 6 7 1 1 2 3 3 3 3 3 2 1 0 1 1 3 4 4 4 4 5 6 6 6 6 6 6 7 7 7 6 6 6 6 6 6 6
8 6 5 6 4 3 1 0 1 0 1 1 2 2 3 4 3 2 1 0 1 1 2 3 4 4 4 5 5 6 5 5 5 6 6 6 7 6 6 6 7 6 6 6
5 3 4 4 4 2 1 0 0 0 1 2 3 3 3 4 3 2 1 1 1 1 2 3 3 3 3 4 4 4 4 4 5 6 6 6 6 6 6 5 6 6 6 6
4 5 6 6 4 3 3 1 1 1 2 2 2 3 3 3 3 2 1 1 1 1 1 2 3 3 3 3 3 4 4 4 5 5 5 5 5 5 5 5 4 5 5 4
7 7 8 6 4 4 2 2 2 2 2 3 3 3 3 3 2 2 1 1 1 1 1 2 3 3 3 3 3 4 4 5 5 5 5 5 4 4 5 5 4 2 4 2
Wind_Direction
199 214 207 197 217 238 201 192 148 121 143 195 187 147 156 173 187 187 186 185 186 189 184 184 187 188 185 187 190 194 198 187 198 200 208 193 184 183 158 132 90 58 354 30
202 216 213 201 201 216 213 207 170 141 150 213 201 178 162 178 193 196 194 194 191 188 184 185 188 189 189 189 193 193 195 192 198 188 200 200 202 199 137 100 79 36 55 328
216 201 188 196 198 209 218 219 200 164 167 202 223 182 168 178 196 198 202 201 197 193 189 186 190 193 192 192 194 194 192 191 195 192 189 180 181 206 174 165 152 131 327 323
222 203 190 201 205 217 215 218 217 194 211 192 248 224 163 178 190 198 202 202 201 195 193 189 189 191 194 192 189 189 187 188 188 193 199 200 205 196 168 197 136 154 220 292
205 199 200 208 212 220 224 192 211 216 231 239 221 259 145 170 197 196 198 202 201 197 194 192 191 187 190 189 185 183 183 185 186 191 192 204 210 201 185 179 160 235 177 252
211 193 213 216 206 198 171 171 192 220 239 238 236 258 201 164 204 194 190 195 196 194 193 192 188 184 188 187 184 182 180 186 187 191 195 204 210 214 211 214 212 215 192 192
200 194 192 198 187 181 198 207 209 215 219 224 196 244 251 130 190 207 190 190 189 188 188 187 185 184 186 186 184 183 181 186 188 190 197 200 206 209 212 225 207 239 225 189
201 197 191 199 209 197 208 224 235 243 232 199 189 227 202 121 163 199 184 179 180 183 184 184 184 184 185 185 183 183 183 186 185 188 194 201 205 213 206 210 238 222 246 240
210 200 178 194 210 215 205 224 242 248 252 251 208 205 202 180 182 178 178 174 177 180 180 182 183 182 183 184 184 185 183 185 186 189 190 195 201 211 210 202 219 221 217 214
227 207 184 179 193 212 233 216 218 236 243 238 218 217 201 175 187 175 175 175 174 179 178 179 182 182 181 181 181 185 185 186 187 190 195 191 197 200 206 213 211 221 216 222
227 214 190 187 205 198 200 210 224 228 248 250 234 204 161 184 189 185 177 174 170 177 176 176 178 178 179 179 178 181 183 184 187 191 193 199 198 199 203 206 210 210 211 207
223 228 206 197 198 231 219 219 217 223 223 247 260 185 132 168 177 187 173 165 169 174 173 172 172 174 178 180 181 180 184 185 186 187 190 195 199 200 203 203 206 207 206 206
218 228 210 199 195 203 215 215 224 232 230 236 245 196 140 154 173 174 165 163 166 171 171 170 172 175 180 182 183 184 186 185 186 185 188 189 193 194 199 201 200 203 202 204
246 232 236 227 208 195 205 209 214 224 230 229 236 227 174 180 185 174 174 173 167 166 171 173 174 177 179 181 182 184 185 182 181 183 185 186 190 191 192 194 196 201 205 206
242 228 232 244 230 218 216 210 211 222 236 244 232 230 211 204 204 184 177 177 174 170 174 177 178 175 177 180 182 185 182 179 178 179 184 187 187 186 189 190 196 202 207 210
249 236 225 228 226 220 221 220 217 221 230 236 237 234 224 203 173 171 176 185 186 187 185 184 183 181 183 183 183 182 180 178 178 182 185 185 185 185 189 193 197 199 204 209
224 228 226 223 215 221 220 217 215 215 222 231 232 231 235 224 201 197 189 199 204 202 197 189 188 190 190 186 183 181 177 176 180 184 186 185 187 189 193 196 197 202 205 206
233 235 233 226 212 225 219 207 215 217 219 231 244 247 238 242 220 212 203 216 224 217 208 196 193 193 191 184 180 179 174 177 182 186 188 188 190 193 194 197 201 206 207 209
227 226 231 227 221 219 203 201 211 217 216 225 237 245 248 238 212 194 204 251 239 233 215 197 194 188 182 180 174 175 178 181 186 190 192 192 192 193 195 199 202 203 206 212
201 223 232 226 230 225 204 192 210 218 215 210 226 237 248 232 232 186 41 301 275 246 208 193 184 175 172 172 171 179 183 187 193 195 196 195 194 197 200 201 204 203 206 214
190 203 222 227 232 228 183 180 198 218 210 196 215 229 239 235 277 330 314 299 277 191 172 170 169 168 167 168 171 183 185 192 195 193 194 196 196 200 201 201 203 205 209 212
211 207 212 223 231 218 142 189 207 207 67 182 219 233 236 242 256 273 287 321 127 127 147 158 159 156 159 168 176 185 191 192 189 188 191 194 198 204 197 198 204 208 211 211
233 246 235 235 237 65 65 209 67 330 249 281 264 259 261 255 259 272 253 135 117 117 140 156 153 151 158 173 184 192 191 189 188 187 191 196 198 202 201 200 203 208 213 221
207 251 239 228 210 217 192 178 304 290 272 278 278 267 256 254 263 264 242 188 171 166 158 163 162 163 168 180 192 196 188 189 192 192 192 194 197 203 205 211 213 218 219 224
245 225 224 226 224 232 219 248 280 319 328 310 298 283 266 259 265 266 254 233 224 214 186 185 190 189 187 182 187 196 188 188 197 201 200 204 209 209 210 219 232 233 234 241
234 236 239 240 223 245 229 260 289 285 305 322 317 300 284 273 266 262 258 264 250 238 219 208 207 206 203 195 195 197 197 197 202 205 208 213 219 216 224 220 225 246 247 239